• Em Portugal
  • Lista de países
  • Para 7 dias
  • Temperatura da água
  • Mapas de satélite
  • Mapa do tempo
  • Widgets de tempo
  • user-avatar
    Iniciar Sessão

    Previsão horária em Chakhansur

    Hoje, 23 Janeiro, Terça-feira

    Tempo Temperatura Precipitação Vento Pressão Humidade
    00:00 +10°C° 0 mm 2 m/s 720 mmHg 32%
    01:00 +10°C° 0 mm 2 m/s 719 mmHg 32%
    02:00 +9°C° 0 mm 2 m/s 719 mmHg 33%
    03:00 +9°C° 0 mm 2 m/s 719 mmHg 34%
    04:00 +8°C° 0 mm 2 m/s 719 mmHg 36%
    05:00 +8°C° 0 mm 2 m/s 719 mmHg 37%
    06:00 +8°C° 0 mm 1 m/s 719 mmHg 39%
    07:00 +8°C° 0 mm 1 m/s 719 mmHg 41%
    08:00 +10°C° 0 mm 1 m/s 719 mmHg 36%
    09:00 +12°C° 0 mm 1 m/s 720 mmHg 31%
    10:00 +13°C° 0 mm 0 m/s 720 mmHg 26%
    11:00 +16°C° 0 mm 1 m/s 720 mmHg 24%
    12:00 +18°C° 0 mm 1 m/s 719 mmHg 22%
    13:00 +19°C° 0 mm 1 m/s 719 mmHg 20%
    14:00 +19°C° 0 mm 1 m/s 718 mmHg 19%
    15:00 +20°C° 0 mm 1 m/s 718 mmHg 18%
    16:00 +19°C° 0 mm 2 m/s 718 mmHg 17%
    17:00 +18°C° 0 mm 2 m/s 718 mmHg 18%
    18:00 +16°C° 0 mm 2 m/s 718 mmHg 20%
    19:00 +15°C° 0 mm 2 m/s 718 mmHg 21%
    20:00 +15°C° 0 mm 2 m/s 718 mmHg 21%
    21:00 +14°C° 0 mm 2 m/s 718 mmHg 21%
    22:00 +13°C° 0 mm 3 m/s 718 mmHg 21%
    23:00 +13°C° 0 mm 3 m/s 718 mmHg 23%

    Amanhã, 24 Janeiro, Quarta-feira

    Tempo Temperatura Precipitação Vento Pressão Humidade
    00:00 +12°C° 0 mm 3 m/s 717 mmHg 24%
    01:00 +12°C° 0 mm 3 m/s 717 mmHg 26%
    02:00 +12°C° 0 mm 3 m/s 717 mmHg 28%
    03:00 +11°C° 0 mm 3 m/s 717 mmHg 30%
    04:00 +11°C° 0 mm 3 m/s 717 mmHg 33%
    05:00 +10°C° 0 mm 3 m/s 717 mmHg 34%
    06:00 +10°C° 0 mm 2 m/s 718 mmHg 36%
    07:00 +10°C° 0 mm 2 m/s 718 mmHg 38%
    08:00 +12°C° 0 mm 2 m/s 718 mmHg 33%
    09:00 +14°C° 0 mm 2 m/s 719 mmHg 29%
    10:00 +16°C° 0 mm 2 m/s 719 mmHg 25%
    11:00 +19°C° 0 mm 1 m/s 719 mmHg 22%
    12:00 +20°C° 0 mm 1 m/s 719 mmHg 20%
    13:00 +21°C° 0 mm 1 m/s 718 mmHg 17%
    14:00 +21°C° 0 mm 1 m/s 718 mmHg 16%
    15:00 +22°C° 0 mm 1 m/s 718 mmHg 16%
    16:00 +22°C° 0 mm 1 m/s 718 mmHg 15%
    17:00 +20°C° 0 mm 1 m/s 718 mmHg 17%
    18:00 +18°C° 0 mm 1 m/s 718 mmHg 20%
    19:00 +16°C° 0 mm 1 m/s 718 mmHg 22%
    20:00 +15°C° 0 mm 1 m/s 719 mmHg 23%
    21:00 +15°C° 0 mm 1 m/s 719 mmHg 23%
    22:00 +14°C° 0 mm 1 m/s 719 mmHg 24%
    23:00 +14°C° 0 mm 1 m/s 719 mmHg 25%

    Depois de amanhã, 25 Janeiro, Quinta-feira

    Tempo Temperatura Precipitação Vento Pressão Humidade
    00:00 +14°C° 0 mm 1 m/s 719 mmHg 25%
    01:00 +14°C° 0 mm 2 m/s 719 mmHg 26%
    02:00 +13°C° 0 mm 2 m/s 719 mmHg 27%
    03:00 +13°C° 0 mm 2 m/s 719 mmHg 27%
    04:00 +13°C° 0 mm 2 m/s 719 mmHg 28%
    05:00 +12°C° 0 mm 2 m/s 719 mmHg 29%
    06:00 +12°C° 0 mm 2 m/s 719 mmHg 29%
    07:00 +10°C° 0 mm 2 m/s 719 mmHg 30%
    08:00 +14°C° 0 mm 2 m/s 720 mmHg 26%
    09:00 +16°C° 0 mm 2 m/s 721 mmHg 22%
    10:00 +18°C° 0 mm 2 m/s 721 mmHg 18%
    11:00 +20°C° 0 mm 3 m/s 721 mmHg 17%
    12:00 +21°C° 0 mm 3 m/s 720 mmHg 15%
    13:00 +22°C° 0 mm 3 m/s 720 mmHg 14%
    14:00 +22°C° 0 mm 3 m/s 720 mmHg 13%
    15:00 +24°C° 0 mm 3 m/s 719 mmHg 13%
    16:00 +24°C° 0 mm 3 m/s 719 mmHg 13%
    17:00 +21°C° 0 mm 3 m/s 719 mmHg 14%
    18:00 +20°C° 0 mm 3 m/s 719 mmHg 16%
    19:00 +18°C° 0 mm 3 m/s 719 mmHg 18%
    20:00 +17°C° 0 mm 3 m/s 720 mmHg 19%
    21:00 +17°C° 0 mm 4 m/s 720 mmHg 20%
    22:00 +15°C° 0 mm 4 m/s 720 mmHg 21%
    23:00 +14°C° 0 mm 4 m/s 720 mmHg 22%

    26 Janeiro, Sexta-feira

    Tempo Temperatura Precipitação Vento Pressão Humidade
    00:00 +14°C° 0 mm 4 m/s 720 mmHg 22%
    01:00 +13°C° 0 mm 4 m/s 719 mmHg 23%
    02:00 +12°C° 0 mm 4 m/s 719 mmHg 23%
    03:00 +12°C° 0 mm 4 m/s 719 mmHg 24%
    04:00 +11°C° 0 mm 4 m/s 719 mmHg 25%
    05:00 +11°C° 0 mm 4 m/s 719 mmHg 27%
    06:00 +10°C° 0 mm 4 m/s 720 mmHg 28%
    07:00 +10°C° 0 mm 3 m/s 720 mmHg 30%
    08:00 +11°C° 0 mm 4 m/s 720 mmHg 27%
    09:00 +13°C° 0 mm 4 m/s 721 mmHg 24%
    10:00 +15°C° 0 mm 4 m/s 721 mmHg 21%
    11:00 +17°C° 0 mm 4 m/s 721 mmHg 19%
    12:00 +19°C° 0 mm 3 m/s 720 mmHg 16%
    13:00 +20°C° 0 mm 3 m/s 720 mmHg 14%
    14:00 +21°C° 0 mm 3 m/s 720 mmHg 13%
    15:00 +21°C° 0 mm 3 m/s 719 mmHg 13%
    16:00 +21°C° 0 mm 2 m/s 719 mmHg 12%
    17:00 +20°C° 0 mm 2 m/s 719 mmHg 14%
    18:00 +18°C° 0 mm 2 m/s 719 mmHg 16%
    19:00 +17°C° 0 mm 2 m/s 719 mmHg 17%
    20:00 +16°C° 0 mm 2 m/s 719 mmHg 18%
    21:00 +15°C° 0 mm 2 m/s 719 mmHg 19%
    22:00 +15°C° 0 mm 2 m/s 719 mmHg 20%
    23:00 +14°C° 0 mm 2 m/s 719 mmHg 21%

    27 Janeiro, Sábado

    Tempo Temperatura Precipitação Vento Pressão Humidade
    00:00 +14°C° 0 mm 2 m/s 719 mmHg 22%
    01:00 +13°C° 0 mm 2 m/s 718 mmHg 23%
    02:00 +13°C° 0 mm 2 m/s 718 mmHg 24%
    03:00 +12°C° 0 mm 2 m/s 718 mmHg 25%
    04:00 +12°C° 0 mm 2 m/s 718 mmHg 26%
    05:00 +10°C° 0 mm 2 m/s 718 mmHg 27%
    06:00 +10°C° 0 mm 2 m/s 718 mmHg 27%
    07:00 +9°C° 0 mm 2 m/s 718 mmHg 28%
    08:00 +12°C° 0 mm 2 m/s 719 mmHg 25%
    09:00 +14°C° 0 mm 2 m/s 719 mmHg 22%
    10:00 +16°C° 0 mm 2 m/s 720 mmHg 19%
    11:00 +17°C° 0 mm 2 m/s 719 mmHg 17%
    12:00 +19°C° 0 mm 2 m/s 718 mmHg 16%
    13:00 +21°C° 0 mm 1 m/s 718 mmHg 14%
    14:00 +21°C° 0 mm 1 m/s 717 mmHg 13%
    15:00 +22°C° 0 mm 1 m/s 717 mmHg 13%
    16:00 +22°C° 0 mm 1 m/s 717 mmHg 12%
    17:00 +20°C° 0 mm 1 m/s 717 mmHg 14%
    18:00 +19°C° 0 mm 1 m/s 717 mmHg 15%
    19:00 +16°C° 0 mm 1 m/s 717 mmHg 17%
    20:00 +15°C° 0 mm 1 m/s 717 mmHg 18%
    21:00 +15°C° 0 mm 1 m/s 717 mmHg 18%
    22:00 +15°C° 0 mm 1 m/s 717 mmHg 19%
    23:00 +14°C° 0 mm 2 m/s 716 mmHg 20%

    28 Janeiro, Domingo

    Tempo Temperatura Precipitação Vento Pressão Humidade
    00:00 +14°C° 0 mm 2 m/s 716 mmHg 21%
    01:00 +12°C° 0 mm 3 m/s 716 mmHg 22%
    02:00 +12°C° 0 mm 3 m/s 716 mmHg 23%
    03:00 +11°C° 0 mm 4 m/s 715 mmHg 25%
    04:00 +10°C° 0 mm 4 m/s 715 mmHg 26%
    05:00 +10°C° 0 mm 4 m/s 715 mmHg 27%
    06:00 +8°C° 0 mm 4 m/s 716 mmHg 27%
    07:00 +8°C° 0 mm 4 m/s 716 mmHg 28%
    08:00 +10°C° 0 mm 4 m/s 716 mmHg 24%
    09:00 +12°C° 0 mm 4 m/s 716 mmHg 21%
    10:00 +13°C° 0 mm 4 m/s 717 mmHg 18%
    11:00 +15°C° 0 mm 4 m/s 716 mmHg 17%
    12:00 +17°C° 0 mm 4 m/s 715 mmHg 15%
    13:00 +18°C° 0 mm 4 m/s 714 mmHg 14%
    14:00 +17°C° 0 mm 5 m/s 714 mmHg 14%
    15:00 +16°C° 0 mm 5 m/s 713 mmHg 15%
    16:00 +16°C° 0 mm 6 m/s 712 mmHg 16%
    17:00 +14°C° 0 mm 7 m/s 713 mmHg 21%
    18:00 +11°C° 0 mm 8 m/s 713 mmHg 27%
    19:00 +8°C° 0 mm 9 m/s 713 mmHg 33%
    20:00 +6°C° 0 mm 10 m/s 713 mmHg 39%
    21:00 +5°C° 0 mm 10 m/s 714 mmHg 45%
    22:00 +3°C° 0 mm 11 m/s 714 mmHg 51%
    23:00 +2°C° 0 mm 11 m/s 715 mmHg 52%
    Mostrar mais